星链-34383 (STARLINK-34383)

导读

STARLINK-34383是美国于2025年6月8日发射的Starlink星链卫星,星链计划是美国SpaceX打造的低轨卫星互联网星座,旨在为全球提供高速宽带互联网服务,该卫星入轨后将加入星座组网,补网增强全球尤其是偏远地区的网络覆盖,提升低轨卫星通信服务的稳定性与覆盖密度。

Basic Information
目录编号:
64305
目录名称:
STARLINK-34383
国际标识:
2025-123Q
轨道中心:
EARTH
卫星名称:
星链-34383
卫星全名:
星链-34383 (STARLINK-34383)
卫星状态:
在轨 (已飞行454 天)
发射日期:
2025-06-08 UTC
国别 :
美国 (US)
星等 :
--
Orbit Information
数据来源 国际轨道数据
星历时间: 2026-09-05T06:00:02+0800
8小时前
查看轨道信息
半长轴: 6855.252km
偏心率: 0.0003867
轨道倾角: 70.000°
近地点辐角 269.153°
升交点赤经 102.134°
平近点角 166.447°
近地点: 474.464km
远地点: 479.766km
周期: 94.144分钟
每日圈数: 15.295641
Detailed Information
固有亮度:
5
最大亮度:
2.5
卫星平台:
Starlink V1.0
覆盖范围:
全球
运营商:
太空探索技术公司
运营商所在国:
美国
制造商(研发单位):
太空探索技术公司
制造商所在国:
美国
使用方式:
暂无
Satellite Introduction
Starlink 计划是 SpaceX 推出的全球卫星互联网项目,通过发射低轨道卫星,为全球尤其是偏远地区提供高速、低延迟的互联网服务。自 2019 年起,Starlink 已部署数千颗卫星,旨在缩小全球数字鸿沟,推动互联网普及。该项目还为军事、航空等行业提供通信支持,带来广泛经济效益。
2D Orbit Map
3D Orbit Map
Orbit Altitude Analysis Chart
Orbit Inclination Analysis Chart
Orbit Comprehensive Analysis Chart
View Comprehensive Chart
Conjunction Data List
Event ID Objects TCA Miss Dist (km) Collision Risk Probability Collision Risk Index (CRI) Action
CDM_260903-084106-430506-876621
2026-09-03T
08:41:40+0000
1.081 km
极远距离
2.11304E-5 中风险 0.61
CDM_260903-113906-430506-547121
2026-09-03T
11:39:30+0000
1.772 km
极远距离
2.088816E-6 低风险 0.41
CDM_260907-051205-613306-430521
2026-09-07T
05:12:35+0000
2.531 km
极远距离
1.391506E-6 低风险 0.38
CDM_260905-023106-221306-430521
2026-09-05T
02:31:51+0000
2.764 km
极远距离
1.279369E-6 低风险 0.37
CDM_260906-113206-430506-751021
2026-09-06T
11:32:18+0000
2.638 km
极远距离
1.199216E-6 低风险 0.37
CDM_260905-054205-954806-430521
2026-09-05T
05:42:48+0000
2.415 km
极远距离
1.144332E-6 低风险 0.36
CDM_260907-123906-289906-430521
2026-09-07T
12:39:08+0000
2.710 km
极远距离
1.106439E-6 低风险 0.36
CDM_260907-115106-430506-716621
2026-09-07T
11:51:42+0000
2.905 km
极远距离
1.077949E-6 低风险 0.36
CDM_260905-214905-809606-430521
2026-09-05T
21:49:09+0000
2.958 km
极远距离
7.863013E-7 极低风险 0.33
CDM_260905-150505-559406-430521
2026-09-05T
15:05:36+0000
2.943 km
极远距离
7.377589E-7 极低风险 0.32